• In Germany
  • List of Countries
  • For 7 days
  • Water Temperature
  • Satellite Maps
  • Weather Map
  • Weather Widgets
  • user-avatar
    Login

    Hourly Weather Gold Coast

    Today, 27 March, Monday

    Time Temperature Precipitation Wind Pressure Humidity
    00:00 +23°C° 0 mm 2 mps 757 mmHg 93%
    01:00 +23°C° 0 mm 2 mps 757 mmHg 94%
    02:00 +23°C° 0 mm 2 mps 757 mmHg 94%
    03:00 +23°C° 0 mm 2 mps 757 mmHg 95%
    04:00 +21°C° 0 mm 2 mps 757 mmHg 96%
    05:00 +23°C° 0 mm 2 mps 757 mmHg 95%
    06:00 +22°C° 0 mm 3 mps 757 mmHg 94%
    07:00 +24°C° 0 mm 3 mps 758 mmHg 93%
    08:00 +25°C° 0 mm 3 mps 758 mmHg 86%
    09:00 +26°C° 0 mm 4 mps 758 mmHg 79%
    10:00 +28°C° 0 mm 4 mps 758 mmHg 72%
    11:00 +28°C° 0 mm 4 mps 757 mmHg 70%
    12:00 +29°C° 0 mm 4 mps 757 mmHg 68%
    13:00 +29°C° 0 mm 4 mps 757 mmHg 67%
    14:00 +29°C° 0 mm 4 mps 756 mmHg 68%
    15:00 +28°C° 0 mm 4 mps 756 mmHg 70%
    16:00 +28°C° 0 mm 4 mps 756 mmHg 72%
    17:00 +26°C° 0 mm 4 mps 756 mmHg 78%
    18:00 +25°C° 0 mm 4 mps 756 mmHg 84%
    19:00 +22°C° 0 mm 4 mps 757 mmHg 89%
    20:00 +22°C° 0 mm 4 mps 757 mmHg 90%
    21:00 +22°C° 0 mm 4 mps 757 mmHg 92%
    22:00 +21°C° 0 mm 3 mps 757 mmHg 93%
    23:00 +21°C° 0 mm 3 mps 757 mmHg 93%

    Tomorrow, 28 March, Tuesday

    Time Temperature Precipitation Wind Pressure Humidity
    00:00 +21°C° 0 mm 3 mps 757 mmHg 94%
    01:00 +20°C° 0 mm 2 mps 756 mmHg 94%
    02:00 +20°C° 0 mm 2 mps 756 mmHg 94%
    03:00 +21°C° 0 mm 2 mps 756 mmHg 93%
    04:00 +22°C° 0 mm 1 mps 756 mmHg 93%
    05:00 +23°C° 0 mm 1 mps 756 mmHg 91%
    06:00 +23°C° 0 mm 1 mps 756 mmHg 88%
    07:00 +24°C° 0 mm 1 mps 757 mmHg 86%
    08:00 +26°C° 0 mm 1 mps 757 mmHg 78%
    09:00 +27°C° 0 mm 2 mps 757 mmHg 70%
    10:00 +29°C° 0 mm 2 mps 757 mmHg 62%
    11:00 +29°C° 0 mm 2 mps 757 mmHg 60%
    12:00 +30°C° 0 mm 3 mps 756 mmHg 58%
    13:00 +31°C° 0 mm 3 mps 756 mmHg 56%
    14:00 +30°C° 0 mm 3 mps 755 mmHg 59%
    15:00 +29°C° 0 mm 4 mps 755 mmHg 63%
    16:00 +28°C° 0 mm 4 mps 755 mmHg 67%
    17:00 +27°C° 0 mm 3 mps 755 mmHg 74%
    18:00 +25°C° 0 mm 3 mps 756 mmHg 81%
    19:00 +22°C° 0 mm 3 mps 756 mmHg 88%
    20:00 +21°C° 0 mm 3 mps 757 mmHg 89%
    21:00 +21°C° 0 mm 3 mps 757 mmHg 91%
    22:00 +21°C° 0 mm 3 mps 757 mmHg 92%
    23:00 +20°C° 0 mm 3 mps 757 mmHg 92%

    Day after tomorrow, 29 March, Wednesday

    Time Temperature Precipitation Wind Pressure Humidity
    00:00 +20°C° 0 mm 3 mps 757 mmHg 93%
    01:00 +20°C° 0 mm 3 mps 756 mmHg 94%
    02:00 +20°C° 0 mm 2 mps 756 mmHg 94%
    03:00 +20°C° 0 mm 2 mps 756 mmHg 94%
    04:00 +19°C° 0 mm 2 mps 756 mmHg 94%
    05:00 +20°C° 0 mm 2 mps 756 mmHg 93%
    06:00 +21°C° 0 mm 3 mps 756 mmHg 91%
    07:00 +22°C° 0 mm 3 mps 757 mmHg 89%
    08:00 +25°C° 0 mm 3 mps 757 mmHg 82%
    09:00 +26°C° 0 mm 4 mps 757 mmHg 75%
    10:00 +28°C° 0 mm 4 mps 757 mmHg 68%
    11:00 +29°C° 0 mm 4 mps 757 mmHg 67%
    12:00 +29°C° 0 mm 4 mps 756 mmHg 65%
    13:00 +29°C° 0 mm 5 mps 756 mmHg 64%
    14:00 +29°C° 0 mm 5 mps 756 mmHg 68%
    15:00 +28°C° 0 mm 5 mps 755 mmHg 71%
    16:00 +28°C° 0 mm 5 mps 755 mmHg 74%
    17:00 +27°C° 0.1 mm 5 mps 755 mmHg 79%
    18:00 +26°C° 0.1 mm 5 mps 756 mmHg 84%
    19:00 +25°C° 0.1 mm 5 mps 756 mmHg 90%
    20:00 +25°C° 1.2 mm 5 mps 756 mmHg 91%
    21:00 +25°C° 1.2 mm 5 mps 756 mmHg 93%
    22:00 +25°C° 1.2 mm 5 mps 757 mmHg 94%
    23:00 +25°C° 5.1 mm 5 mps 756 mmHg 95%

    30 March, Thursday

    Time Temperature Precipitation Wind Pressure Humidity
    00:00 +25°C° 5.1 mm 5 mps 755 mmHg 96%
    01:00 +24°C° 5.1 mm 6 mps 755 mmHg 96%
    02:00 +25°C° 3.7 mm 5 mps 755 mmHg 97%
    03:00 +25°C° 3.7 mm 5 mps 754 mmHg 97%
    04:00 +25°C° 3.7 mm 4 mps 754 mmHg 97%
    05:00 +25°C° 0.9 mm 3 mps 754 mmHg 97%
    06:00 +25°C° 0.9 mm 3 mps 754 mmHg 96%
    07:00 +25°C° 0.9 mm 2 mps 755 mmHg 96%
    08:00 +26°C° 0.7 mm 3 mps 754 mmHg 92%
    09:00 +27°C° 0.7 mm 4 mps 754 mmHg 89%
    10:00 +29°C° 0.7 mm 4 mps 754 mmHg 85%
    11:00 +29°C° 0.8 mm 5 mps 753 mmHg 84%
    12:00 +29°C° 0.8 mm 5 mps 753 mmHg 83%
    13:00 +29°C° 0.8 mm 5 mps 752 mmHg 83%
    14:00 +29°C° 0.5 mm 6 mps 751 mmHg 83%
    15:00 +29°C° 0.5 mm 6 mps 751 mmHg 84%
    16:00 +29°C° 0.5 mm 6 mps 751 mmHg 84%
    17:00 +28°C° 0.8 mm 6 mps 751 mmHg 86%
    18:00 +27°C° 0.8 mm 7 mps 751 mmHg 88%
    19:00 +27°C° 0.8 mm 7 mps 751 mmHg 90%
    20:00 +27°C° 0.4 mm 7 mps 752 mmHg 90%
    21:00 +27°C° 0.4 mm 7 mps 752 mmHg 90%
    22:00 +27°C° 0.4 mm 7 mps 752 mmHg 90%
    23:00 +26°C° 0.1 mm 6 mps 751 mmHg 91%

    31 March, Friday

    Time Temperature Precipitation Wind Pressure Humidity
    00:00 +26°C° 0.1 mm 6 mps 751 mmHg 92%
    01:00 +26°C° 0.1 mm 6 mps 751 mmHg 93%
    02:00 +26°C° 0.8 mm 6 mps 750 mmHg 94%
    03:00 +26°C° 0.8 mm 6 mps 750 mmHg 94%
    04:00 +26°C° 0.8 mm 6 mps 750 mmHg 95%
    05:00 +26°C° 4.9 mm 6 mps 750 mmHg 95%
    06:00 +24°C° 4.9 mm 6 mps 751 mmHg 96%
    07:00 +24°C° 4.9 mm 6 mps 751 mmHg 96%
    08:00 +22°C° 15 mm 7 mps 751 mmHg 96%
    09:00 +21°C° 15 mm 8 mps 751 mmHg 95%
    10:00 +19°C° 15 mm 9 mps 751 mmHg 95%
    11:00 +21°C° 2.7 mm 10 mps 751 mmHg 93%
    12:00 +21°C° 2.7 mm 10 mps 751 mmHg 91%
    13:00 +22°C° 2.7 mm 11 mps 751 mmHg 89%
    14:00 +22°C° 0.4 mm 11 mps 751 mmHg 86%
    15:00 +23°C° 0.4 mm 11 mps 751 mmHg 83%
    16:00 +24°C° 0.4 mm 12 mps 751 mmHg 79%
    17:00 +24°C° 0 mm 11 mps 752 mmHg 79%
    18:00 +23°C° 0 mm 11 mps 752 mmHg 78%
    19:00 +23°C° 0 mm 11 mps 753 mmHg 77%
    20:00 +23°C° 0 mm 11 mps 753 mmHg 77%
    21:00 +22°C° 0 mm 10 mps 754 mmHg 77%
    22:00 +22°C° 0 mm 10 mps 754 mmHg 77%
    23:00 +22°C° 0 mm 10 mps 754 mmHg 79%

    1 April, Saturday

    Time Temperature Precipitation Wind Pressure Humidity
    00:00 +21°C° 0 mm 9 mps 754 mmHg 80%
    01:00 +19°C° 0 mm 9 mps 754 mmHg 81%
    02:00 +19°C° 0 mm 9 mps 754 mmHg 82%
    03:00 +19°C° 0 mm 9 mps 754 mmHg 83%
    04:00 +20°C° 0 mm 8 mps 754 mmHg 83%
    05:00 +20°C° 0 mm 8 mps 755 mmHg 83%
    06:00 +20°C° 0 mm 8 mps 756 mmHg 84%
    07:00 +20°C° 0 mm 8 mps 756 mmHg 84%
    08:00 +21°C° 0 mm 8 mps 756 mmHg 80%
    09:00 +22°C° 0 mm 8 mps 757 mmHg 76%
    10:00 +24°C° 0 mm 8 mps 757 mmHg 72%
    11:00 +24°C° 0 mm 8 mps 756 mmHg 69%
    12:00 +26°C° 0 mm 8 mps 756 mmHg 67%
    13:00 +27°C° 0 mm 8 mps 756 mmHg 64%
    14:00 +26°C° 0 mm 8 mps 756 mmHg 66%
    15:00 +26°C° 0 mm 9 mps 756 mmHg 68%
    16:00 +26°C° 0 mm 9 mps 756 mmHg 69%
    17:00 +23°C° 0 mm 9 mps 757 mmHg 72%
    18:00 +22°C° 0 mm 9 mps 757 mmHg 74%
    19:00 +21°C° 0 mm 8 mps 758 mmHg 77%
    20:00 +20°C° 0 mm 8 mps 758 mmHg 78%
    21:00 +20°C° 0 mm 8 mps 759 mmHg 79%
    22:00 +18°C° 0 mm 8 mps 759 mmHg 80%
    23:00 +18°C° 0 mm 8 mps 759 mmHg 82%
    Show more